Simultaneous Nadir Overpasses (SNOs) Predictions

Prediction of SNOs between NOAA-15 and METOP-C Satellite Orbit:

Table of predicted SNOs for the next 14.0 days since TLE Epoch: 1/24/2025
Index Date (NOAA-15) Time (NOAA-15) Lat,Lon (NOAA-15) SZA (NOAA-15 ) Date (METOP-C) Time (METOP-C) Lat,Lon (METOP-C) SZA (METOP-C ) Distance(km) Time Diff (sec)
1 02/07/2025 06:11:35 81.02, 124.54 97.67 02/07/2025 06:10:27 81.02, 124.49 97.65 0.83 68
2 02/07/2025 07:02:08 -81.02, -67.98 82.34 02/07/2025 07:01:07 -81.03, -67.90 82.34 2.40 61
3 02/07/2025 07:52:34 81.03, 99.17 97.65 02/07/2025 07:51:48 81.03, 99.36 97.65 3.24 46
4 02/07/2025 08:43:07 -81.02, -93.35 82.37 02/07/2025 08:42:29 -81.03, -93.40 82.38 0.90 38
5 02/07/2025 09:33:33 81.04, 73.80 97.62 02/07/2025 09:33:10 81.02, 73.86 97.61 1.61 23
6 02/07/2025 10:24:06 -81.03,-118.72 82.39 02/07/2025 10:23:50 -81.04,-118.53 82.38 3.30 16
7 02/07/2025 11:14:30 81.02, 48.80 97.61 02/07/2025 11:14:30 81.03, 48.72 97.61 1.68 0
8 02/07/2025 12:05:04 -81.04,-144.09 82.42 02/07/2025 12:05:11 -81.03,-144.03 82.42 1.21 7
9 02/07/2025 12:55:29 81.03, 23.43 97.58 02/07/2025 12:55:51 81.04, 23.59 97.61 3.00 22
10 02/07/2025 13:46:02 -81.02,-169.09 82.43 02/07/2025 13:46:32 -81.04,-169.17 82.42 2.03 30
11 02/07/2025 14:36:28 81.04, -1.94 97.55 02/07/2025 14:37:13 81.03, -1.91 97.57 0.43 45
12 02/07/2025 15:27:01 -81.03, 165.54 82.46 02/07/2025 15:27:53 -81.05, 165.70 82.41 3.25 52
13 02/07/2025 16:17:27 81.04, -27.31 97.53 02/07/2025 16:18:35 81.03, -27.42 97.53 2.57 68



Historial Predications of SNOs between NOAA-15 and METOP-C
